Location: Le Moustier
(44.1000°N, 6.5167°E)
Time: 16:47:09
(UTC+00:00)

EXPRESS MD2 - Pass Details

Date: 13 December 2025
Orbit: 257 x 2832 km, 49.8° (Epoch: 16 January)

Event Time Altitude Azimuth Distance (km) Brightness Sun altitude
Rises 16:56:51 0° 226° (SW) 1,871 7.5 -10.6°
Reaches altitude 10° 16:58:30 10° 220° (SW) 1,138 6.0 -10.9°
Maximum altitude 17:00:47 46° 144° (SE) 478 2.9 -11.2°
Enters shadow 17:02:45 19° 76° (ENE) 1,067 4.2 -11.6°
